Time,TemperatureF,DewpointF,PressureIn,WindDirection,WindDirectionDegrees,WindSpeedMPH,WindSpeedGustMPH,Humidity,HourlyPrecipIn,Conditions,Clouds,dailyrainin,SoftwareType,DateUTC
2013-03-07 00:00:00,35.1,12.6,29.94,NNE,31,10.1,10.1,39,0.00,,---,0.00,VWS V14.01,2013-03-07 05:00:00,
2013-03-07 00:05:00,35.1,12.6,29.94,ENE,60,6.3,7.8,39,0.00,,---,0.00,VWS V14.01,2013-03-07 05:05:00,
2013-03-07 00:10:00,34.9,13.0,29.94,NNE,30,6.7,8.3,40,0.00,,---,0.00,VWS V14.01,2013-03-07 05:10:00,
2013-03-07 00:15:00,34.9,13.0,29.94,NNE,20,5.8,10.5,40,0.00,,---,0.00,VWS V14.01,2013-03-07 05:15:00,
2013-03-07 00:20:00,34.9,13.0,29.94,ENE,58,4.9,8.7,40,0.00,,---,0.00,VWS V14.01,2013-03-07 05:20:00,
2013-03-07 00:25:00,34.9,13.0,29.94,NE,53,8.7,9.2,40,0.00,,---,0.00,VWS V14.01,2013-03-07 05:25:00,
2013-03-07 00:30:00,34.9,13.0,29.94,ENE,74,2.7,5.4,40,0.00,,---,0.00,VWS V14.01,2013-03-07 05:30:00,
2013-03-07 00:35:00,34.7,12.9,29.94,East,81,6.7,7.4,40,0.00,,---,0.00,VWS V14.01,2013-03-07 05:35:00,
2013-03-07 00:40:00,34.7,12.9,29.94,ESE,104,4.9,5.8,40,0.00,,---,0.00,VWS V14.01,2013-03-07 05:40:00,
2013-03-07 00:45:00,34.7,13.4,29.94,ENE,78,4.9,9.2,41,0.00,,---,0.00,VWS V14.01,2013-03-07 05:45:00,
2013-03-07 00:50:00,34.5,13.3,29.94,ESE,108,4.5,5.8,41,0.00,,---,0.00,VWS V14.01,2013-03-07 05:50:00,
2013-03-07 00:55:00,34.5,13.3,29.94,North,356,7.4,11.0,41,0.00,,---,0.00,VWS V14.01,2013-03-07 05:55:00,
2013-03-07 01:00:00,34.5,13.3,29.94,NE,45,7.4,10.1,41,0.00,,---,0.00,VWS V14.01,2013-03-07 06:00:00,
2013-03-07 01:05:00,34.5,13.3,29.94,ENE,74,5.4,6.9,41,0.00,,---,0.00,VWS V14.01,2013-03-07 06:05:00,
2013-03-07 01:10:00,34.3,13.1,29.94,North,9,7.8,7.8,41,0.00,,---,0.00,VWS V14.01,2013-03-07 06:10:00,
2013-03-07 01:15:00,34.3,13.6,29.94,NNE,22,8.3,8.3,42,0.00,,---,0.00,VWS V14.01,2013-03-07 06:15:00,
2013-03-07 01:20:00,34.3,13.6,29.94,NNE,30,6.7,11.6,42,0.00,,---,0.00,VWS V14.01,2013-03-07 06:20:00,
2013-03-07 01:25:00,34.2,13.5,29.94,NNW,334,10.1,10.1,42,0.00,,---,0.00,VWS V14.01,2013-03-07 06:25:00,
2013-03-07 01:30:00,34.2,14.0,29.94,NNE,26,3.1,6.7,43,0.00,,---,0.00,VWS V14.01,2013-03-07 06:30:00,
2013-03-07 01:35:00,34.2,14.0,29.94,NNE,25,6.9,13.0,43,0.00,,---,0.00,VWS V14.01,2013-03-07 06:35:00,
2013-03-07 01:40:00,34.0,13.9,29.94,NE,42,7.4,8.7,43,0.00,,---,0.00,VWS V14.01,2013-03-07 06:40:00,
2013-03-07 01:45:00,34.0,14.4,29.94,NE,35,6.9,7.4,44,0.00,,---,0.00,VWS V14.01,2013-03-07 06:45:00,
2013-03-07 01:50:00,33.8,14.7,29.94,East,82,6.7,6.9,45,0.00,,---,0.00,VWS V14.01,2013-03-07 06:50:00,
2013-03-07 01:55:00,33.6,15.1,29.94,NE,43,7.4,7.4,46,0.00,,---,0.00,VWS V14.01,2013-03-07 06:55:00,
2013-03-07 02:00:00,33.6,15.1,29.94,NE,50,6.7,11.0,46,0.00,,---,0.00,VWS V14.01,2013-03-07 07:00:00,
2013-03-07 02:05:00,33.6,15.6,29.94,NE,42,5.8,7.8,47,0.00,,---,0.00,VWS V14.01,2013-03-07 07:05:00,
2013-03-07 02:10:00,33.4,15.9,29.94,NE,47,7.8,9.6,48,0.00,,---,0.00,VWS V14.01,2013-03-07 07:10:00,
2013-03-07 02:15:00,33.4,15.4,29.94,ENE,57,7.8,7.8,47,0.00,,---,0.00,VWS V14.01,2013-03-07 07:15:00,
2013-03-07 02:20:00,33.4,15.4,29.94,NNE,22,8.3,9.6,47,0.00,,---,0.00,VWS V14.01,2013-03-07 07:20:00,
2013-03-07 02:25:00,33.4,15.4,29.94,ENE,72,0.0,5.4,47,0.00,,---,0.00,VWS V14.01,2013-03-07 07:25:00,
2013-03-07 02:30:00,33.4,14.9,29.94,NE,40,4.9,9.2,46,0.00,,---,0.00,VWS V14.01,2013-03-07 07:30:00,
2013-03-07 02:35:00,33.6,15.1,29.94,NNE,33,5.8,6.9,46,0.00,,---,0.00,VWS V14.01,2013-03-07 07:35:00,
2013-03-07 02:40:00,33.6,14.6,29.94,NNE,30,6.7,6.7,45,0.00,,---,0.00,VWS V14.01,2013-03-07 07:40:00,
2013-03-07 02:45:00,33.4,14.4,29.94,NNE,28,4.5,7.4,45,0.00,,---,0.00,VWS V14.01,2013-03-07 07:45:00,
2013-03-07 02:50:00,33.6,14.1,29.94,NNE,30,6.9,11.2,44,0.00,,---,0.00,VWS V14.01,2013-03-07 07:50:00,
2013-03-07 02:55:00,33.6,14.1,29.94,NE,47,8.3,8.3,44,0.00,,---,0.00,VWS V14.01,2013-03-07 07:55:00,
2013-03-07 03:00:00,33.6,13.5,29.94,NE,37,6.3,7.4,43,0.00,,---,0.00,VWS V14.01,2013-03-07 08:00:00,
2013-03-07 03:06:00,33.6,13.0,29.94,East,92,8.3,9.6,42,0.00,,---,0.00,VWS V14.01,2013-03-07 08:06:00,
2013-03-07 03:11:00,33.6,13.0,29.94,ENE,70,4.5,6.7,42,0.00,,---,0.00,VWS V14.01,2013-03-07 08:11:00,
2013-03-07 03:16:00,33.6,13.0,29.94,NE,38,5.8,10.1,42,0.00,,---,0.00,VWS V14.01,2013-03-07 08:16:00,
2013-03-07 03:21:00,33.8,12.6,29.94,ENE,65,6.7,11.2,41,0.00,,---,0.00,VWS V14.01,2013-03-07 08:21:00,
2013-03-07 03:26:00,33.8,12.6,29.94,East,88,4.5,9.6,41,0.00,,---,0.00,VWS V14.01,2013-03-07 08:26:00,
2013-03-07 03:31:00,33.8,12.6,29.94,ENE,58,5.8,9.2,41,0.00,,---,0.00,VWS V14.01,2013-03-07 08:31:00,
2013-03-07 03:36:00,33.8,12.1,29.94,East,91,6.7,10.5,40,0.00,,---,0.00,VWS V14.01,2013-03-07 08:36:00,
2013-03-07 03:41:00,33.8,12.1,29.94,NE,49,3.6,8.3,40,0.00,,---,0.00,VWS V14.01,2013-03-07 08:41:00,
2013-03-07 03:46:00,33.8,12.1,29.94,NE,50,5.4,7.8,40,0.00,,---,0.00,VWS V14.01,2013-03-07 08:46:00,
2013-03-07 03:51:00,33.8,12.1,29.94,East,81,6.7,8.7,40,0.00,,---,0.00,VWS V14.01,2013-03-07 08:51:00,
2013-03-07 03:56:00,33.8,12.1,29.94,NE,47,7.8,10.1,40,0.00,,---,0.00,VWS V14.01,2013-03-07 08:56:00,
2013-03-07 04:01:00,33.8,12.1,29.94,NE,46,8.3,10.5,40,0.00,,---,0.00,VWS V14.01,2013-03-07 09:01:00,
2013-03-07 04:06:00,33.8,12.1,29.94,NNE,28,6.3,11.2,40,0.00,,---,0.00,VWS V14.01,2013-03-07 09:06:00,
2013-03-07 04:11:00,33.8,12.1,29.94,East,86,6.9,10.5,40,0.00,,---,0.00,VWS V14.01,2013-03-07 09:11:00,
2013-03-07 04:16:00,33.8,12.1,29.94,ENE,74,3.1,8.3,40,0.00,,---,0.00,VWS V14.01,2013-03-07 09:16:00,
2013-03-07 04:21:00,33.8,12.1,29.97,NNE,26,6.7,12.1,40,0.00,,---,0.00,VWS V14.01,2013-03-07 09:21:00,
2013-03-07 04:26:00,33.8,12.1,29.97,NE,39,7.8,7.8,40,0.00,,---,0.00,VWS V14.01,2013-03-07 09:26:00,
2013-03-07 04:31:00,33.8,12.1,29.97,North,3,7.4,13.9,40,0.00,,---,0.00,VWS V14.01,2013-03-07 09:31:00,
2013-03-07 04:36:00,33.8,12.1,29.97,NE,35,7.4,10.5,40,0.00,,---,0.00,VWS V14.01,2013-03-07 09:36:00,
2013-03-07 04:41:00,33.8,12.1,29.97,East,87,4.9,13.4,40,0.00,,---,0.00,VWS V14.01,2013-03-07 09:41:00,
2013-03-07 04:46:00,33.6,11.9,29.97,East,81,7.4,10.1,40,0.00,,---,0.00,VWS V14.01,2013-03-07 09:46:00,
2013-03-07 04:51:00,33.6,11.9,29.97,ENE,65,6.7,12.1,40,0.00,,---,0.00,VWS V14.01,2013-03-07 09:51:00,
2013-03-07 04:56:00,33.6,11.9,29.97,ENE,71,4.9,10.5,40,0.00,,---,0.00,VWS V14.01,2013-03-07 09:56:00,
2013-03-07 05:01:00,33.6,11.9,29.97,ENE,61,6.7,11.6,40,0.00,,---,0.00,VWS V14.01,2013-03-07 10:01:00,
2013-03-07 05:06:00,33.6,11.9,29.97,NE,54,3.6,12.1,40,0.00,,---,0.00,VWS V14.01,2013-03-07 10:06:00,
2013-03-07 05:11:00,33.6,11.3,29.97,ENE,63,4.9,9.2,39,0.00,,---,0.00,VWS V14.01,2013-03-07 10:11:00,
2013-03-07 05:16:00,33.6,11.3,29.97,NNE,29,4.9,13.9,39,0.00,,---,0.00,VWS V14.01,2013-03-07 10:16:00,
2013-03-07 05:21:00,33.6,11.3,29.97,ESE,120,7.4,11.2,39,0.00,,---,0.00,VWS V14.01,2013-03-07 10:21:00,
2013-03-07 05:26:00,33.6,11.3,29.97,NE,44,6.9,11.6,39,0.00,,---,0.00,VWS V14.01,2013-03-07 10:26:00,
2013-03-07 05:31:00,33.6,10.7,29.97,East,82,6.9,10.1,38,0.00,,---,0.00,VWS V14.01,2013-03-07 10:31:00,
2013-03-07 05:36:00,33.6,10.7,29.97,North,4,15.9,16.3,38,0.00,,---,0.00,VWS V14.01,2013-03-07 10:36:00,
2013-03-07 05:41:00,33.6,10.1,29.97,NNE,25,7.4,12.1,37,0.00,,---,0.00,VWS V14.01,2013-03-07 10:41:00,
2013-03-07 05:47:00,33.6,10.1,29.97,ENE,60,6.9,8.7,37,0.00,,---,0.00,VWS V14.01,2013-03-07 10:47:00,
2013-03-07 05:52:00,33.6,10.1,29.97,ENE,62,3.6,12.1,37,0.00,,---,0.00,VWS V14.01,2013-03-07 10:52:00,
2013-03-07 05:57:00,33.6,10.1,29.97,ENE,69,6.3,7.8,37,0.00,,---,0.00,VWS V14.01,2013-03-07 10:57:00,
2013-03-07 06:02:00,33.6,10.1,29.97,NNE,25,9.2,10.5,37,0.00,,---,0.00,VWS V14.01,2013-03-07 11:02:00,
2013-03-07 06:07:00,33.6,10.7,29.97,ENE,77,6.7,12.1,38,0.00,,---,0.00,VWS V14.01,2013-03-07 11:07:00,
2013-03-07 06:12:00,33.4,11.2,29.97,East,79,4.9,10.5,39,0.00,,---,0.00,VWS V14.01,2013-03-07 11:12:00,
2013-03-07 06:17:00,33.3,11.6,29.97,ENE,59,10.1,11.6,40,0.00,,---,0.00,VWS V14.01,2013-03-07 11:17:00,
2013-03-07 06:22:00,33.1,12.0,29.97,NNE,30,6.7,11.6,41,0.00,,---,0.00,VWS V14.01,2013-03-07 11:22:00,
2013-03-07 06:27:00,33.1,12.0,29.97,NE,38,7.8,12.1,41,0.00,,---,0.00,VWS V14.01,2013-03-07 11:27:00,
2013-03-07 06:32:00,32.9,12.3,29.97,North,1,2.7,9.2,42,0.00,,---,0.00,VWS V14.01,2013-03-07 11:32:00,
2013-03-07 06:37:00,32.9,12.3,30.00,NE,40,6.7,10.1,42,0.00,,---,0.00,VWS V14.01,2013-03-07 11:37:00,
2013-03-07 06:42:00,32.7,12.7,30.00,ENE,77,7.4,10.1,43,0.00,,---,0.00,VWS V14.01,2013-03-07 11:42:00,
2013-03-07 06:47:00,32.7,13.2,30.00,NNE,15,4.9,10.5,44,0.00,,---,0.00,VWS V14.01,2013-03-07 11:47:00,
2013-03-07 06:52:00,32.5,13.1,30.00,ENE,67,4.5,10.5,44,0.00,,---,0.00,VWS V14.01,2013-03-07 11:52:00,
2013-03-07 06:57:00,32.5,13.6,30.00,NNE,21,6.7,7.4,45,0.00,,---,0.00,VWS V14.01,2013-03-07 11:57:00,
2013-03-07 07:02:00,32.5,14.1,30.00,NNE,14,9.6,9.6,46,0.00,,---,0.00,VWS V14.01,2013-03-07 12:02:00,
2013-03-07 07:07:00,32.4,14.4,30.00,NNE,26,3.1,9.2,47,0.00,,---,0.00,VWS V14.01,2013-03-07 12:07:00,
2013-03-07 07:12:00,32.2,15.2,30.00,NE,56,3.6,8.3,49,0.00,,---,0.00,VWS V14.01,2013-03-07 12:12:00,
2013-03-07 07:17:00,32.0,15.9,30.00,NNE,22,5.8,10.1,51,0.00,,---,0.00,VWS V14.01,2013-03-07 12:17:00,
2013-03-07 07:23:00,31.8,16.2,30.00,NE,45,3.1,10.5,52,0.00,,---,0.00,VWS V14.01,2013-03-07 12:23:00,
2013-03-07 07:28:00,31.8,16.6,30.00,NNE,18,6.3,9.6,53,0.00,,---,0.00,VWS V14.01,2013-03-07 12:28:00,
2013-03-07 07:33:00,31.8,17.1,30.00,NE,54,6.3,10.5,54,0.00,,---,0.00,VWS V14.01,2013-03-07 12:33:00,
2013-03-07 07:38:00,32.0,17.2,30.00,NNE,24,9.6,11.6,54,0.00,,---,0.00,VWS V14.01,2013-03-07 12:38:00,
2013-03-07 07:43:00,32.0,17.2,30.00,NE,40,5.4,10.5,54,0.00,,---,0.00,VWS V14.01,2013-03-07 12:43:00,
2013-03-07 07:48:00,32.2,17.4,30.00,ENE,68,2.7,11.2,54,0.00,,---,0.00,VWS V14.01,2013-03-07 12:48:00,
2013-03-07 07:53:00,32.4,17.1,30.00,East,87,3.1,10.1,53,0.00,,---,0.00,VWS V14.01,2013-03-07 12:53:00,
2013-03-07 07:58:00,32.5,16.9,30.00,North,0,4.9,11.0,52,0.00,,---,0.00,VWS V14.01,2013-03-07 12:58:00,
2013-03-07 08:03:00,32.7,16.1,30.00,ENE,72,5.4,10.1,50,0.00,,---,0.00,VWS V14.01,2013-03-07 13:03:00,
2013-03-07 08:08:00,33.1,15.5,30.00,NE,34,4.5,7.4,48,0.00,,---,0.00,VWS V14.01,2013-03-07 13:08:00,
2013-03-07 08:13:00,33.3,15.2,30.00,ENE,74,3.1,8.7,47,0.00,,---,0.00,VWS V14.01,2013-03-07 13:13:00,
2013-03-07 08:18:00,33.6,14.1,30.00,East,92,4.9,11.6,44,0.00,,---,0.00,VWS V14.01,2013-03-07 13:18:00,
2013-03-07 08:23:00,33.6,13.0,30.00,ENE,59,0.0,11.2,42,0.00,,---,0.00,VWS V14.01,2013-03-07 13:23:00,
2013-03-07 08:28:00,33.8,12.6,30.00,NNE,18,7.8,13.4,41,0.00,,---,0.00,VWS V14.01,2013-03-07 13:28:00,
2013-03-07 08:33:00,33.8,12.6,30.00,North,6,7.8,10.5,41,0.00,,---,0.00,VWS V14.01,2013-03-07 13:33:00,
2013-03-07 08:38:00,33.8,12.6,30.00,NE,53,4.5,8.7,41,0.00,,---,0.00,VWS V14.01,2013-03-07 13:38:00,
2013-03-07 08:44:00,34.0,12.2,30.00,ENE,68,4.9,10.5,40,0.00,,---,0.00,VWS V14.01,2013-03-07 13:44:00,
2013-03-07 08:49:00,34.0,12.2,30.00,SE,128,2.7,13.0,40,0.00,,---,0.00,VWS V14.01,2013-03-07 13:49:00,
2013-03-07 08:54:00,34.0,12.2,30.00,NNE,30,5.8,12.5,40,0.00,,---,0.00,VWS V14.01,2013-03-07 13:54:00,
2013-03-07 08:59:00,34.2,12.4,30.00,NNE,15,0.0,10.5,40,0.00,,---,0.00,VWS V14.01,2013-03-07 13:59:00,
2013-03-07 09:04:00,34.2,12.4,30.00,NNE,21,7.4,10.1,40,0.00,,---,0.00,VWS V14.01,2013-03-07 14:04:00,
2013-03-07 09:09:00,34.0,12.2,30.00,ENE,72,5.4,14.8,40,0.00,,---,0.00,VWS V14.01,2013-03-07 14:09:00,
2013-03-07 09:14:00,33.8,12.6,30.00,NNE,26,7.4,13.0,41,0.00,,---,0.00,VWS V14.01,2013-03-07 14:14:00,
2013-03-07 09:19:00,33.8,12.6,30.00,NE,53,8.7,13.0,41,0.00,,---,0.00,VWS V14.01,2013-03-07 14:19:00,
2013-03-07 09:24:00,33.6,13.0,30.00,NE,47,4.0,4.0,42,0.00,,---,0.00,VWS V14.01,2013-03-07 14:24:00,
2013-03-07 09:29:00,33.8,13.7,30.00,NE,45,5.8,9.2,43,0.00,,---,0.00,VWS V14.01,2013-03-07 14:29:00,
2013-03-07 09:34:00,33.8,13.7,30.00,North,9,9.6,11.2,43,0.00,,---,0.00,VWS V14.01,2013-03-07 14:34:00,
2013-03-07 09:39:00,33.6,14.1,30.00,NE,50,5.8,5.8,44,0.00,,---,0.00,VWS V14.01,2013-03-07 14:39:00,
2013-03-07 09:44:00,33.6,14.1,30.00,ENE,73,6.3,6.3,44,0.00,,---,0.00,VWS V14.01,2013-03-07 14:44:00,
2013-03-07 09:49:00,33.8,14.7,30.00,NE,42,6.7,11.2,45,0.00,,---,0.00,VWS V14.01,2013-03-07 14:49:00,
2013-03-07 09:54:00,33.8,15.2,30.00,ENE,68,4.9,12.5,46,0.00,,---,0.00,VWS V14.01,2013-03-07 14:54:00,
2013-03-07 09:59:00,34.2,16.5,30.00,NE,56,3.6,10.1,48,0.00,,---,0.00,VWS V14.01,2013-03-07 14:59:00,
2013-03-07 10:04:00,34.0,15.9,30.00,ENE,65,5.4,7.4,47,0.00,,---,0.00,VWS V14.01,2013-03-07 15:04:00,
2013-03-07 10:09:00,34.2,16.0,30.00,NNE,28,3.1,7.4,47,0.00,,---,0.00,VWS V14.01,2013-03-07 15:09:00,
2013-03-07 10:14:00,34.3,16.2,30.00,NNE,12,3.6,5.4,47,0.00,,---,0.00,VWS V14.01,2013-03-07 15:14:00,
2013-03-07 10:19:00,34.3,16.2,30.00,NE,40,7.4,7.4,47,0.00,,---,0.00,VWS V14.01,2013-03-07 15:19:00,
2013-03-07 10:24:00,34.2,16.0,30.00,NE,43,8.3,9.2,47,0.00,,---,0.00,VWS V14.01,2013-03-07 15:24:00,
2013-03-07 10:30:00,34.3,17.2,30.00,North,0,6.9,8.3,49,0.00,,---,0.00,VWS V14.01,2013-03-07 15:30:00,
2013-03-07 10:35:00,34.0,16.8,30.00,North,11,7.4,10.1,49,0.00,,---,0.00,VWS V14.01,2013-03-07 15:35:00,
2013-03-07 10:40:00,34.2,17.5,30.00,NE,46,4.9,5.8,50,0.00,,---,0.00,VWS V14.01,2013-03-07 15:40:00,
2013-03-07 10:45:00,34.2,17.9,30.00,ENE,58,6.9,10.5,51,0.00,,---,0.00,VWS V14.01,2013-03-07 15:45:00,
2013-03-07 10:50:00,34.5,18.3,30.00,ENE,64,4.9,4.9,51,0.00,,---,0.00,VWS V14.01,2013-03-07 15:50:00,
2013-03-07 10:55:00,34.7,18.0,30.00,NE,34,6.7,10.1,50,0.00,,---,0.00,VWS V14.01,2013-03-07 15:55:00,
2013-03-07 11:00:00,35.1,17.8,30.00,NNE,26,4.5,8.3,49,0.00,,---,0.00,VWS V14.01,2013-03-07 16:00:00,
2013-03-07 11:05:00,35.1,16.9,30.00,NE,42,3.6,7.4,47,0.00,,---,0.00,VWS V14.01,2013-03-07 16:05:00,
2013-03-07 11:10:00,35.6,16.4,30.00,NE,38,6.9,8.3,45,0.00,,---,0.00,VWS V14.01,2013-03-07 16:10:00,
2013-03-07 11:15:00,36.0,16.7,30.00,NE,56,5.4,6.7,45,0.00,,---,0.00,VWS V14.01,2013-03-07 16:15:00,
2013-03-07 11:20:00,36.5,17.7,30.00,NE,34,4.5,4.9,46,0.00,,---,0.00,VWS V14.01,2013-03-07 16:20:00,
2013-03-07 11:25:00,36.7,15.8,30.00,NNE,22,6.3,8.7,42,0.00,,---,0.00,VWS V14.01,2013-03-07 16:25:00,
2013-03-07 11:30:00,37.0,15.5,30.00,NNE,29,2.7,5.4,41,0.00,,---,0.00,VWS V14.01,2013-03-07 16:30:00,
2013-03-07 11:35:00,37.4,15.3,30.00,NNE,20,2.7,11.0,40,0.00,,---,0.00,VWS V14.01,2013-03-07 16:35:00,
2013-03-07 11:40:00,37.2,13.4,30.00,ENE,62,6.3,9.6,37,0.00,,---,0.00,VWS V14.01,2013-03-07 16:40:00,
2013-03-07 11:45:00,37.6,14.9,30.00,NNE,22,10.1,10.1,39,0.00,,---,0.00,VWS V14.01,2013-03-07 16:45:00,
2013-03-07 11:50:00,37.0,14.4,30.00,ENE,70,4.9,10.5,39,0.00,,---,0.00,VWS V14.01,2013-03-07 16:50:00,
2013-03-07 11:55:00,37.0,15.0,30.00,North,356,5.4,9.6,40,0.00,,---,0.00,VWS V14.01,2013-03-07 16:55:00,
2013-03-07 12:00:00,36.9,14.8,30.00,NNW,330,6.3,9.2,40,0.00,,---,0.00,VWS V14.01,2013-03-07 17:00:00,
2013-03-07 12:05:00,36.7,14.6,30.00,NNE,21,4.0,10.5,40,0.00,,---,0.00,VWS V14.01,2013-03-07 17:05:00,
2013-03-07 12:10:00,36.7,15.2,30.00,NNE,28,5.4,8.3,41,0.00,,---,0.00,VWS V14.01,2013-03-07 17:10:00,
2013-03-07 12:15:00,37.0,15.5,30.00,North,5,6.9,8.7,41,0.00,,---,0.00,VWS V14.01,2013-03-07 17:15:00,
2013-03-07 12:20:00,37.0,15.5,30.00,NE,41,12.5,12.5,41,0.00,,---,0.00,VWS V14.01,2013-03-07 17:20:00,
2013-03-07 12:25:00,36.7,15.2,30.00,North,10,4.9,5.4,41,0.00,,---,0.00,VWS V14.01,2013-03-07 17:25:00,
2013-03-07 12:30:00,36.3,15.4,30.00,North,356,4.0,8.3,42,0.00,,---,0.00,VWS V14.01,2013-03-07 17:30:00,
2013-03-07 12:35:00,36.5,16.1,30.00,North,6,15.2,15.2,43,0.00,,---,0.00,VWS V14.01,2013-03-07 17:35:00,
2013-03-07 12:40:00,36.1,15.8,30.00,NNE,33,4.5,7.4,43,0.00,,---,0.00,VWS V14.01,2013-03-07 17:40:00,
2013-03-07 12:45:00,36.1,16.9,30.00,North,356,4.0,6.7,45,0.00,,---,0.00,VWS V14.01,2013-03-07 17:45:00,
2013-03-07 12:50:00,36.1,17.4,30.00,NNE,18,7.8,9.2,46,0.00,,---,0.00,VWS V14.01,2013-03-07 17:50:00,
2013-03-07 12:55:00,36.1,17.9,30.00,NNE,26,6.3,9.6,47,0.00,,---,0.00,VWS V14.01,2013-03-07 17:55:00,
2013-03-07 13:00:00,35.8,17.5,30.00,North,356,4.0,6.9,47,0.00,,---,0.00,VWS V14.01,2013-03-07 18:00:00,
2013-03-07 13:05:00,36.0,18.2,30.00,North,356,0.0,11.6,48,0.00,,---,0.00,VWS V14.01,2013-03-07 18:05:00,
2013-03-07 13:10:00,36.0,18.7,30.00,NE,43,3.6,7.8,49,0.00,,---,0.00,VWS V14.01,2013-03-07 18:10:00,
2013-03-07 13:15:00,35.8,18.5,30.00,NE,35,5.4,10.5,49,0.00,,---,0.00,VWS V14.01,2013-03-07 18:15:00,
2013-03-07 13:20:00,35.8,19.0,30.00,NNE,29,4.0,13.0,50,0.00,,---,0.00,VWS V14.01,2013-03-07 18:20:00,
2013-03-07 13:25:00,36.0,19.6,30.00,North,351,5.8,7.8,51,0.00,,---,0.00,VWS V14.01,2013-03-07 18:25:00,
2013-03-07 13:30:00,36.0,19.6,30.00,NNE,15,6.3,10.5,51,0.00,,---,0.00,VWS V14.01,2013-03-07 18:30:00,
2013-03-07 13:36:00,35.8,19.4,30.00,North,10,9.2,10.1,51,0.00,,---,0.00,VWS V14.01,2013-03-07 18:36:00,
2013-03-07 13:41:00,35.4,19.6,30.00,NNE,18,8.7,11.2,52,0.00,,---,0.00,VWS V14.01,2013-03-07 18:41:00,
2013-03-07 13:46:00,35.4,20.0,30.00,NNE,14,3.6,10.1,53,0.00,,---,0.00,VWS V14.01,2013-03-07 18:46:00,
2013-03-07 13:51:00,35.8,20.8,30.00,NNE,33,0.0,7.8,54,0.00,,---,0.00,VWS V14.01,2013-03-07 18:51:00,
2013-03-07 13:56:00,35.8,20.8,30.00,NNE,33,6.7,7.4,54,0.00,,---,0.00,VWS V14.01,2013-03-07 18:56:00,
2013-03-07 14:01:00,35.8,20.8,30.00,ENE,65,5.8,7.4,54,0.00,,---,0.00,VWS V14.01,2013-03-07 19:01:00,
2013-03-07 14:06:00,35.6,20.2,30.00,NE,54,4.0,7.8,53,0.00,,---,0.00,VWS V14.01,2013-03-07 19:06:00,
2013-03-07 14:11:00,35.4,20.0,30.00,NNE,33,5.8,10.1,53,0.00,,---,0.00,VWS V14.01,2013-03-07 19:11:00,
2013-03-07 14:16:00,34.9,19.5,30.00,NE,37,8.3,10.1,53,0.00,,---,0.00,VWS V14.01,2013-03-07 19:16:00,
2013-03-07 14:21:00,34.9,19.9,30.00,NNE,27,4.5,11.2,54,0.00,,---,0.00,VWS V14.01,2013-03-07 19:21:00,
2013-03-07 14:26:00,34.7,20.2,30.00,NNE,31,3.1,7.8,55,0.00,,---,0.00,VWS V14.01,2013-03-07 19:26:00,
2013-03-07 14:32:00,34.7,20.6,30.00,North,356,5.8,9.6,56,0.00,,---,0.00,VWS V14.01,2013-03-07 19:32:00,
2013-03-07 14:37:00,34.7,21.0,30.00,NNE,22,7.4,9.2,57,0.00,,---,0.00,VWS V14.01,2013-03-07 19:37:00,
2013-03-07 14:42:00,34.5,21.3,30.00,NNE,13,3.1,8.3,58,0.00,,---,0.00,VWS V14.01,2013-03-07 19:42:00,
2013-03-07 14:47:00,34.7,21.5,30.00,NNW,341,9.6,9.6,58,0.00,,---,0.00,VWS V14.01,2013-03-07 19:47:00,
2013-03-07 14:52:00,34.5,21.7,30.00,NNE,24,5.4,10.5,59,0.00,,---,0.00,VWS V14.01,2013-03-07 19:52:00,
2013-03-07 14:57:00,34.5,21.7,30.00,North,10,8.3,11.2,59,0.00,,---,0.00,VWS V14.01,2013-03-07 19:57:00,
2013-03-07 15:02:00,34.5,22.1,30.00,NE,35,4.9,8.3,60,0.00,,---,0.00,VWS V14.01,2013-03-07 20:02:00,
2013-03-07 15:07:00,34.5,22.1,30.00,ENE,67,4.9,9.2,60,0.00,,---,0.00,VWS V14.01,2013-03-07 20:07:00,
2013-03-07 15:12:00,34.7,22.6,30.00,North,8,4.9,7.4,61,0.00,,---,0.00,VWS V14.01,2013-03-07 20:12:00,
2013-03-07 15:17:00,34.9,22.8,30.00,North,351,3.6,6.9,61,0.00,,---,0.00,VWS V14.01,2013-03-07 20:17:00,
2013-03-07 15:23:00,34.7,22.6,30.03,North,8,3.6,9.6,61,0.00,,---,0.00,VWS V14.01,2013-03-07 20:23:00,
2013-03-07 15:28:00,34.5,22.5,30.03,NE,48,6.7,8.7,61,0.00,,---,0.00,VWS V14.01,2013-03-07 20:28:00,
2013-03-07 15:33:00,34.3,21.9,30.03,NNE,30,5.4,8.3,60,0.00,,---,0.00,VWS V14.01,2013-03-07 20:33:00,
2013-03-07 15:38:00,34.3,22.3,30.00,North,351,7.4,10.1,61,0.00,,---,0.00,VWS V14.01,2013-03-07 20:38:00,
2013-03-07 15:43:00,34.3,22.3,30.00,North,5,0.0,10.5,61,0.00,,---,0.00,VWS V14.01,2013-03-07 20:43:00,
2013-03-07 15:48:00,34.3,22.3,30.00,North,3,7.8,12.5,61,0.00,,---,0.00,VWS V14.01,2013-03-07 20:48:00,
2013-03-07 15:53:00,34.3,22.3,30.03,ENE,62,4.0,9.2,61,0.00,,---,0.00,VWS V14.01,2013-03-07 20:53:00,
2013-03-07 15:58:00,34.3,22.3,30.03,North,0,0.0,11.0,61,0.00,,---,0.00,VWS V14.01,2013-03-07 20:58:00,
2013-03-07 16:03:00,34.3,22.3,30.03,NNE,22,8.7,9.2,61,0.00,,---,0.00,VWS V14.01,2013-03-07 21:03:00,
2013-03-07 16:08:00,34.3,21.9,30.03,NNE,26,4.5,8.7,60,0.00,,---,0.00,VWS V14.01,2013-03-07 21:08:00,
2013-03-07 16:13:00,34.3,21.9,30.03,North,11,8.7,8.7,60,0.00,,---,0.00,VWS V14.01,2013-03-07 21:13:00,
2013-03-07 16:18:00,34.3,21.9,30.03,NE,53,4.0,8.7,60,0.00,,---,0.00,VWS V14.01,2013-03-07 21:18:00,
2013-03-07 16:23:00,34.3,21.5,30.03,North,351,6.7,12.5,59,0.00,,---,0.00,VWS V14.01,2013-03-07 21:23:00,
2013-03-07 16:28:00,34.2,20.9,30.03,NE,56,2.7,11.6,58,0.00,,---,0.00,VWS V14.01,2013-03-07 21:28:00,
2013-03-07 16:33:00,34.2,20.9,30.03,NE,36,4.5,8.3,58,0.00,,---,0.00,VWS V14.01,2013-03-07 21:33:00,
2013-03-07 16:38:00,34.2,20.5,30.03,ENE,74,7.8,9.6,57,0.00,,---,0.00,VWS V14.01,2013-03-07 21:38:00,
2013-03-07 16:43:00,34.0,19.5,30.03,NE,44,4.5,11.6,55,0.00,,---,0.00,VWS V14.01,2013-03-07 21:43:00,
2013-03-07 16:48:00,34.0,19.5,30.03,NNE,24,3.1,11.6,55,0.00,,---,0.00,VWS V14.01,2013-03-07 21:48:00,
2013-03-07 16:53:00,33.8,19.4,30.03,NNE,12,6.3,11.6,55,0.00,,---,0.00,VWS V14.01,2013-03-07 21:53:00,
2013-03-07 16:58:00,33.8,19.4,30.03,NNE,23,3.6,10.1,55,0.00,,---,0.00,VWS V14.01,2013-03-07 21:58:00,
2013-03-07 17:03:00,33.6,19.2,30.03,North,5,5.8,8.7,55,0.00,,---,0.00,VWS V14.01,2013-03-07 22:03:00,
2013-03-07 17:08:00,33.6,19.2,30.03,NNE,28,9.2,11.0,55,0.00,,---,0.00,VWS V14.01,2013-03-07 22:08:00,
2013-03-07 17:13:00,33.4,19.0,30.03,NNE,14,6.7,9.2,55,0.00,,---,0.00,VWS V14.01,2013-03-07 22:13:00,
2013-03-07 17:18:00,33.4,19.0,30.03,North,5,2.7,11.0,55,0.00,,---,0.00,VWS V14.01,2013-03-07 22:18:00,
2013-03-07 17:23:00,33.4,19.4,30.03,NE,46,6.3,8.3,56,0.00,,---,0.00,VWS V14.01,2013-03-07 22:23:00,
2013-03-07 17:28:00,33.3,19.3,30.03,NNE,19,4.5,4.5,56,0.00,,---,0.00,VWS V14.01,2013-03-07 22:28:00,
2013-03-07 17:33:00,33.3,19.3,30.03,North,356,0.0,7.4,56,0.00,,---,0.00,VWS V14.01,2013-03-07 22:33:00,
2013-03-07 17:38:00,33.3,19.3,30.03,North,351,12.5,12.5,56,0.00,,---,0.00,VWS V14.01,2013-03-07 22:38:00,
2013-03-07 17:43:00,33.1,19.5,30.03,North,351,4.9,4.9,57,0.00,,---,0.00,VWS V14.01,2013-03-07 22:43:00,
2013-03-07 17:48:00,33.1,19.5,30.03,NNE,23,4.5,4.5,57,0.00,,---,0.00,VWS V14.01,2013-03-07 22:48:00,
2013-03-07 17:53:00,33.1,19.9,30.03,NNE,24,5.4,5.4,58,0.00,,---,0.00,VWS V14.01,2013-03-07 22:53:00,
2013-03-07 17:58:00,32.9,19.8,30.03,North,10,8.3,8.3,58,0.00,,---,0.00,VWS V14.01,2013-03-07 22:58:00,
2013-03-07 18:03:00,32.9,20.2,30.03,North,351,4.0,4.5,59,0.00,,---,0.00,VWS V14.01,2013-03-07 23:03:00,
2013-03-07 18:09:00,32.9,20.2,30.03,NE,43,3.6,5.8,59,0.00,,---,0.00,VWS V14.01,2013-03-07 23:09:00,
2013-03-07 18:14:00,32.7,20.0,30.03,NNE,16,4.5,5.4,59,0.00,,---,0.00,VWS V14.01,2013-03-07 23:14:00,
2013-03-07 18:19:00,32.7,20.4,30.03,ENE,63,6.3,6.3,60,0.00,,---,0.00,VWS V14.01,2013-03-07 23:19:00,
2013-03-07 18:24:00,32.7,20.0,30.03,NE,38,4.5,4.5,59,0.00,,---,0.00,VWS V14.01,2013-03-07 23:24:00,
2013-03-07 18:29:00,32.7,20.0,30.03,North,4,6.9,13.0,59,0.00,,---,0.00,VWS V14.01,2013-03-07 23:29:00,
2013-03-07 18:34:00,32.7,20.0,30.03,NE,34,0.0,4.5,59,0.00,,---,0.00,VWS V14.01,2013-03-07 23:34:00,
2013-03-07 18:39:00,32.7,20.0,30.06,NNE,30,5.8,5.8,59,0.00,,---,0.00,VWS V14.01,2013-03-07 23:39:00,
2013-03-07 18:44:00,32.7,20.0,30.06,NE,42,5.8,6.3,59,0.00,,---,0.00,VWS V14.01,2013-03-07 23:44:00,
2013-03-07 18:49:00,32.5,20.2,30.06,NNE,28,4.9,9.6,60,0.00,,---,0.00,VWS V14.01,2013-03-07 23:49:00,
2013-03-07 18:54:00,32.5,20.2,30.06,NNE,27,5.4,6.3,60,0.00,,---,0.00,VWS V14.01,2013-03-07 23:54:00,
2013-03-07 18:59:00,32.5,20.2,30.06,NNE,33,4.9,7.4,60,0.00,,---,0.00,VWS V14.01,2013-03-07 23:59:00,
2013-03-07 19:04:00,32.5,20.2,30.06,NNE,30,3.1,7.4,60,0.00,,---,0.00,VWS V14.01,2013-03-08 00:04:00,
2013-03-07 19:09:00,32.5,20.2,30.06,NNE,21,4.9,10.5,60,0.00,,---,0.00,VWS V14.01,2013-03-08 00:09:00,
2013-03-07 19:14:00,32.5,20.2,30.06,NNE,26,10.1,11.6,60,0.00,,---,0.00,VWS V14.01,2013-03-08 00:14:00,
2013-03-07 19:19:00,32.4,20.0,30.06,NNE,23,9.6,13.0,60,0.00,,---,0.00,VWS V14.01,2013-03-08 00:19:00,
2013-03-07 19:24:00,32.4,20.4,30.06,NE,34,6.7,8.7,61,0.00,,---,0.00,VWS V14.01,2013-03-08 00:24:00,
2013-03-07 19:29:00,32.2,20.3,30.06,NE,54,10.5,11.0,61,0.00,,---,0.00,VWS V14.01,2013-03-08 00:29:00,
2013-03-07 19:34:00,32.2,20.6,30.06,North,356,5.4,7.4,62,0.00,,---,0.00,VWS V14.01,2013-03-08 00:34:00,
2013-03-07 19:39:00,32.2,21.0,30.06,NNE,29,5.4,8.3,63,0.00,,---,0.00,VWS V14.01,2013-03-08 00:39:00,
2013-03-07 19:44:00,32.0,20.9,30.06,NE,48,10.5,11.6,63,0.00,,---,0.00,VWS V14.01,2013-03-08 00:44:00,
2013-03-07 19:49:00,32.0,21.2,30.06,NNE,18,6.7,10.1,64,0.00,,---,0.00,VWS V14.01,2013-03-08 00:49:00,
2013-03-07 19:55:00,32.0,21.6,30.06,North,10,6.3,9.6,65,0.00,,---,0.00,VWS V14.01,2013-03-08 00:55:00,
2013-03-07 20:00:00,31.8,21.8,30.06,NNE,22,4.9,9.2,66,0.00,,---,0.00,VWS V14.01,2013-03-08 01:00:00,
2013-03-07 20:05:00,31.8,22.1,30.06,North,10,6.9,8.7,67,0.00,,---,0.00,VWS V14.01,2013-03-08 01:05:00,
2013-03-07 20:10:00,31.8,22.5,30.06,North,356,7.8,10.1,68,0.00,,---,0.00,VWS V14.01,2013-03-08 01:10:00,
2013-03-07 20:15:00,31.8,22.8,30.06,North,1,6.7,8.3,69,0.00,,---,0.00,VWS V14.01,2013-03-08 01:15:00,
2013-03-07 20:20:00,31.8,22.8,30.06,ENE,77,5.4,7.8,69,0.00,,---,0.00,VWS V14.01,2013-03-08 01:20:00,
2013-03-07 20:25:00,31.8,23.2,30.03,ENE,76,5.8,8.3,70,0.00,,---,0.00,VWS V14.01,2013-03-08 01:25:00,
2013-03-07 20:30:00,31.6,23.3,30.03,NNE,22,4.5,9.2,71,0.00,,---,0.00,VWS V14.01,2013-03-08 01:30:00,
2013-03-07 20:35:00,31.6,23.3,30.03,NNE,13,12.1,12.1,71,0.00,,---,0.00,VWS V14.01,2013-03-08 01:35:00,
2013-03-07 20:41:00,31.8,23.8,30.03,NNE,25,5.4,13.0,72,0.00,,---,0.00,VWS V14.01,2013-03-08 01:41:00,
2013-03-07 20:46:00,31.6,23.7,30.03,NE,47,2.7,10.5,72,0.00,,---,0.00,VWS V14.01,2013-03-08 01:46:00,
2013-03-07 20:51:00,31.8,23.8,30.03,NE,44,4.5,8.7,72,0.00,,---,0.00,VWS V14.01,2013-03-08 01:51:00,
2013-03-07 20:56:00,31.6,23.7,30.03,East,82,6.7,10.1,72,0.00,,---,0.00,VWS V14.01,2013-03-08 01:56:00,
2013-03-07 21:01:00,31.6,24.0,30.03,NE,38,6.3,11.2,73,0.00,,---,0.00,VWS V14.01,2013-03-08 02:01:00,
2013-03-07 21:06:00,31.6,24.0,30.03,NNE,29,4.5,11.6,73,0.00,,---,0.00,VWS V14.01,2013-03-08 02:06:00,
2013-03-07 21:11:00,31.8,24.2,30.03,ENE,75,5.4,9.6,73,0.00,,---,0.00,VWS V14.01,2013-03-08 02:11:00,
2013-03-07 21:16:00,31.6,24.0,30.03,NNE,12,5.8,10.5,73,0.00,,---,0.00,VWS V14.01,2013-03-08 02:16:00,
2013-03-07 21:21:00,31.6,24.0,30.03,NW,308,6.9,6.9,73,0.00,,---,0.00,VWS V14.01,2013-03-08 02:21:00,
2013-03-07 21:26:00,31.6,24.0,30.03,NNE,22,4.5,11.0,73,0.00,,---,0.00,VWS V14.01,2013-03-08 02:26:00,
2013-03-07 21:31:00,31.6,24.3,30.03,NNE,21,5.4,7.8,74,0.00,,---,0.00,VWS V14.01,2013-03-08 02:31:00,
2013-03-07 21:36:00,31.6,24.3,30.03,NNE,12,9.6,9.6,74,0.00,,---,0.00,VWS V14.01,2013-03-08 02:36:00,
2013-03-07 21:41:00,31.5,24.1,30.03,North,2,4.9,7.8,74,0.00,,---,0.00,VWS V14.01,2013-03-08 02:41:00,
2013-03-07 21:47:00,31.5,24.1,30.03,ENE,57,7.8,7.8,74,0.00,,---,0.00,VWS V14.01,2013-03-08 02:47:00,
2013-03-07 21:52:00,31.5,24.1,30.03,NW,319,4.5,9.2,74,0.00,,---,0.00,VWS V14.01,2013-03-08 02:52:00,
2013-03-07 21:57:00,31.5,24.5,30.03,NNW,340,8.3,8.7,75,0.00,,---,0.00,VWS V14.01,2013-03-08 02:57:00,
2013-03-07 22:02:00,31.5,24.5,30.03,North,7,9.2,12.1,75,0.00,,---,0.00,VWS V14.01,2013-03-08 03:02:00,
2013-03-07 22:07:00,31.5,24.5,30.03,ENE,69,6.9,9.6,75,0.00,,---,0.00,VWS V14.01,2013-03-08 03:07:00,
2013-03-07 22:12:00,31.5,24.5,30.03,NNE,21,4.0,7.4,75,0.00,,---,0.00,VWS V14.01,2013-03-08 03:12:00,
2013-03-07 22:17:00,31.3,24.3,30.03,North,4,8.3,9.2,75,0.00,,---,0.00,VWS V14.01,2013-03-08 03:17:00,
2013-03-07 22:22:00,31.3,24.3,30.00,WSW,245,3.6,8.7,75,0.00,,---,0.00,VWS V14.01,2013-03-08 03:22:00,
2013-03-07 22:27:00,31.3,24.6,30.00,North,7,4.9,11.2,76,0.00,,---,0.00,VWS V14.01,2013-03-08 03:27:00,
2013-03-07 22:33:00,31.3,24.6,30.00,NNE,30,2.7,12.1,76,0.00,,---,0.00,VWS V14.01,2013-03-08 03:33:00,
2013-03-07 22:38:00,31.3,24.6,30.00,North,10,6.3,9.6,76,0.00,,---,0.00,VWS V14.01,2013-03-08 03:38:00,
2013-03-07 22:43:00,31.3,24.6,30.00,North,11,5.4,9.2,76,0.00,,---,0.00,VWS V14.01,2013-03-08 03:43:00,
2013-03-07 22:48:00,31.3,24.9,30.00,NNE,12,4.0,11.6,77,0.00,,---,0.00,VWS V14.01,2013-03-08 03:48:00,
2013-03-07 22:53:00,31.3,24.9,30.00,NE,47,6.9,6.9,77,0.00,,---,0.00,VWS V14.01,2013-03-08 03:53:00,
2013-03-07 22:58:00,31.3,24.9,30.00,NNE,17,0.0,9.6,77,0.00,,---,0.00,VWS V14.01,2013-03-08 03:58:00,
2013-03-07 23:03:00,31.3,24.9,30.00,NNE,21,4.9,6.7,77,0.00,,---,0.00,VWS V14.01,2013-03-08 04:03:00,
2013-03-07 23:08:00,31.3,24.9,30.00,NNE,29,3.6,7.4,77,0.00,,---,0.00,VWS V14.01,2013-03-08 04:08:00,
2013-03-07 23:13:00,31.3,24.9,30.00,NNE,14,0.0,8.3,77,0.00,,---,0.00,VWS V14.01,2013-03-08 04:13:00,
2013-03-07 23:18:00,31.3,24.9,30.00,North,351,4.9,9.6,77,0.00,,---,0.00,VWS V14.01,2013-03-08 04:18:00,
2013-03-07 23:23:00,31.3,24.9,30.00,North,356,2.7,8.3,77,0.00,,---,0.00,VWS V14.01,2013-03-08 04:23:00,
2013-03-07 23:28:00,31.3,24.9,30.00,NE,36,4.0,8.3,77,0.00,,---,0.00,VWS V14.01,2013-03-08 04:28:00,
2013-03-07 23:33:00,31.3,24.9,30.00,North,2,5.4,5.4,77,0.00,,---,0.00,VWS V14.01,2013-03-08 04:33:00,
2013-03-07 23:38:00,31.3,24.9,30.00,NE,36,4.9,6.3,77,0.00,,---,0.00,VWS V14.01,2013-03-08 04:38:00,
2013-03-07 23:43:00,31.3,24.9,30.00,NNE,33,2.7,2.7,77,0.00,,---,0.00,VWS V14.01,2013-03-08 04:43:00,
2013-03-07 23:48:00,31.3,24.9,30.00,NNW,337,6.7,6.7,77,0.00,,---,0.00,VWS V14.01,2013-03-08 04:48:00,
2013-03-07 23:53:00,31.3,24.9,30.00,North,2,0.0,0.0,77,0.00,,---,0.00,VWS V14.01,2013-03-08 04:53:00,
2013-03-07 23:58:00,31.1,24.8,30.00,NNE,20,4.5,4.9,77,0.00,,---,0.00,VWS V14.01,2013-03-08 04:58:00,